Location: Thompson
(55.7500°N, 97.8670°W)
Time: 22:22:30
(UTC-05:00)

Amateur Radio Satellites - All Passes

Search period start: 03 August 2015 21:52
Search period end: 04 August 2015 21:52
Location: Thompson, 55.7500°N, 97.8670°W

Satellite Date Start Highest point End Downlink Frequencies (MHz)
Time Altitude Azimuth
CUBEBUG 1 03 Aug 21:53:43 21:55:23 12° 49° (NE) 21:57:11 437.445
50 SAT 03 Aug 21:56:28 21:59:03 17° 56° (NE) 22:01:43 437.505
DX 1 03 Aug 21:58:57 22:02:35 27° 59° (ENE) 22:06:16 434.975-435.025
HO-68 03 Aug 22:12:58 22:19:28 35° 267° (W) 22:25:56 435.675
AUBIESAT-1 03 Aug 22:16:43 22:18:56 13° 88° (E) 22:21:20 437.475
COMPASS 1 03 Aug 22:17:31 22:21:18 30° 266° (W) 22:25:05 437.405
GOMX 1 03 Aug 22:18:05 22:20:06 13° 276° (W) 22:21:57 467.674
DELFI C3 03 Aug 22:20:44 22:24:50 80° 255° (WSW) 22:28:57 145.870
VELOX 1 03 Aug 22:24:23 22:28:09 29° 60° (ENE) 22:31:58 145.980
ZACube-1 03 Aug 22:31:54 22:36:10 71° 257° (WSW) 22:40:34 437.345
ISS 03 Aug 22:34:51 22:37:37 26° 159° (SSE) 22:40:24 145.825
SEEDS 03 Aug 22:38:39 22:41:40 18° 273° (W) 22:44:35 437.485
PRISM 03 Aug 22:41:19 22:44:10 18° 305° (NW) 22:46:56 437.425
CUTE 1.7 + AOD 2 03 Aug 22:47:26 22:49:40 13° 277° (W) 22:51:45 437.475
ESTCUBE 1 03 Aug 22:47:37 22:51:40 33° 62° (ENE) 22:55:45 437.505/2401.250
FUNcube-1 03 Aug 22:52:26 22:56:35 48° 261° (W) 23:00:51 145.935
HUMSAT D 03 Aug 22:53:59 22:58:11 90° 80° (E) 23:02:28 437.325/437.525
TIGRISAT 03 Aug 22:54:37 22:57:20 15° 84° (E) 23:00:13 435.000
STRAND 1 03 Aug 22:55:51 22:59:28 20° 310° (NW) 23:03:00 437.568
ANTELSAT 03 Aug 22:57:34 23:00:33 17° 85° (E) 23:03:40 437.575/2403.000
AAUSAT CUBESAT 2 03 Aug 22:57:42 23:00:30 17° 274° (W) 23:03:12 437.432
CANX-2 03 Aug 22:57:57 22:58:47 10° 280° (W) 22:59:23 2200.000
Oscar 11 03 Aug 23:00:39 23:04:29 28° 267° (W) 23:08:17 145.826/435.025
UKube-1 03 Aug 23:01:20 23:05:40 77° 70° (ENE) 23:10:00 .
UWE-3 03 Aug 23:03:15 23:07:07 32° 267° (W) 23:11:03 435.000/436.395/437.385
RS-15 03 Aug 23:11:30 23:22:28 78° 131° (SE) 23:33:59 29.354- 29.394
AIST 1 03 Aug 23:12:14 23:16:30 61° 74° (ENE) 23:20:43
CINEMA 3 03 Aug 23:17:22 23:19:08 12° 278° (W) 23:20:45 145.822/145.860
AISAT 03 Aug 23:21:55 23:26:19 82° 72° (ENE) 23:30:46 437.250
M-CUBED/EXP-1 PRIME 03 Aug 23:23:21 23:28:03 49° 105° (ESE) 23:32:39 437.505
POPSAT HIP 1 03 Aug 23:26:08 23:27:37 12° 83° (E) 23:29:17 437.405
CUBEBUG 2 03 Aug 23:26:27 23:29:27 18° 274° (W) 23:32:25 437.445
CUBEBUG 1 03 Aug 23:26:41 23:30:57 56° 68° (ENE) 23:35:12 437.445
50 SAT 03 Aug 23:29:13 23:33:09 79° 256° (WSW) 23:37:08 437.505
QB50P2 03 Aug 23:33:59 23:36:16 14° 85° (E) 23:38:41 145.880/145.840
DX 1 03 Aug 23:34:22 23:38:37 52° 259° (W) 23:42:54 434.975-435.025
Cosmos 2491 03 Aug 23:35:37 23:44:22 72° 73° (ENE) 23:53:06 435.465 / 435.565
UNISAT 6 03 Aug 23:48:10 23:52:37 41° 97° (E) 23:57:05 437.425
AUBIESAT-1 03 Aug 23:49:46 23:54:33 69° 110° (ESE) 23:59:13 437.475
SPROUT 03 Aug 23:51:13 23:55:06 36° 64° (ENE) 23:59:03 437.525
TISAT 1 03 Aug 23:51:25 23:54:51 26° 60° (ENE) 23:58:21 437.305
DUCHIFAT 1 03 Aug 23:54:27 23:57:34 20° 89° (E) 00:00:46 145.980
BEESAT 2 03 Aug 23:54:51 23:58:09 24° 121° (ESE) 00:01:33 435.950
DELFI C3 03 Aug 23:58:54 00:00:40 12° 277° (W) 00:02:16 145.870
NANOSAT C BR1 03 Aug 23:59:55 00:03:17 22° 91° (E) 00:06:41 145.865
QB50P1 03 Aug 23:59:57 00:03:20 23° 91° (E) 00:06:47 145.935-145.965
VELOX 1 04 Aug 00:00:14 00:04:32 50° 260° (W) 00:08:51 145.980
YUBILEINY 04 Aug 00:05:49 00:13:29 37° 83° (E) 00:21:20 435.215
ISS 04 Aug 00:10:31 00:13:37 40° 179° (S) 00:16:42 145.825
ZACube-1 04 Aug 00:11:54 00:13:28 11° 279° (W) 00:14:52 437.345
AIST 2 04 Aug 00:12:45 00:14:00 11° 112° (ESE) 00:15:25 435.215
BEESAT 04 Aug 00:17:50 00:20:36 16° 49° (NE) 00:23:29 436.000
ESTCUBE 1 04 Aug 00:24:08 00:28:28 43° 262° (W) 00:32:49 437.505/2401.250
BEESAT 3 04 Aug 00:29:23 00:33:21 51° 130° (SE) 00:37:22 437.485
TIGRISAT 04 Aug 00:30:08 00:34:51 84° 105° (ESE) 00:39:35 435.000
HUMSAT D 04 Aug 00:32:15 00:34:38 14° 276° (W) 00:36:54 437.325/437.525
ANTELSAT 04 Aug 00:33:17 00:38:01 89° 280° (W) 00:42:45 437.575/2403.000
SWISSCUBE 04 Aug 00:37:47 00:41:23 22° 54° (NE) 00:45:04 437.505
UKube-1 04 Aug 00:39:24 00:42:21 17° 272° (W) 00:45:13 .
POLYITAN 1 04 Aug 00:44:16 00:48:30 54° 101° (E) 00:52:44 437.675
BUGSAT 1 04 Aug 00:47:50 00:51:39 38° 97° (E) 00:55:30 437.445
AIST 1 04 Aug 00:50:38 00:53:46 20° 274° (W) 00:56:49
O/OREOS (USA 219) 04 Aug 00:52:17 00:53:48 12° 98° (E) 00:55:31 437.305
M-CUBED/EXP-1 PRIME 04 Aug 00:58:16 01:02:41 36° 305° (NW) 01:07:02 437.505
ITUPSAT 1 04 Aug 00:59:44 01:03:47 28° 58° (ENE) 01:07:52 437.325
POPSAT HIP 1 04 Aug 01:00:03 01:04:20 73° 105° (ESE) 01:08:37 437.405
AISAT 04 Aug 01:00:37 01:03:32 17° 273° (W) 01:06:19 437.250
CUBEBUG 1 04 Aug 01:04:06 01:07:39 23° 269° (W) 01:11:07 437.445
50 SAT 04 Aug 01:07:05 01:08:29 11° 277° (W) 01:09:43 437.505
QB50P2 04 Aug 01:08:33 01:12:51 89° 106° (ESE) 01:17:09 145.880/145.840
Cosmos 2504 04 Aug 01:17:14 01:20:28 14° 66° (ENE) 01:24:11 435.465 / 435.565
RS-15 04 Aug 01:24:36 01:35:40 61° 342° (NNW) 01:47:16 29.354- 29.394
AUBIESAT-1 04 Aug 01:24:52 01:28:54 27° 309° (NW) 01:32:50 437.475
UNISAT 6 04 Aug 01:25:02 01:29:22 37° 297° (WNW) 01:33:41 437.425
TISAT 1 04 Aug 01:26:18 01:30:23 52° 259° (W) 01:34:31 437.305
SPROUT 04 Aug 01:27:14 01:31:12 36° 264° (W) 01:35:11 437.525
DUCHIFAT 1 04 Aug 01:29:35 01:33:48 65° 290° (WNW) 01:38:01 145.980
BEESAT 2 04 Aug 01:31:45 01:35:53 73° 321° (NW) 01:40:02 435.950
Cosmos 2491 04 Aug 01:33:01 01:40:44 36° 277° (W) 01:48:20 435.465 / 435.565
Oscar 19 04 Aug 01:33:31 01:35:49 13° 81° (E) 01:38:21 437.125/150
NANOSAT C BR1 04 Aug 01:35:15 01:39:27 57° 291° (WNW) 01:43:38 145.865
QB50P1 04 Aug 01:35:20 01:39:32 56° 291° (WNW) 01:43:43 145.935-145.965
ISS 04 Aug 01:46:47 01:49:38 28° 199° (SSW) 01:52:29 145.825
AIST 2 04 Aug 01:47:36 01:51:47 57° 131° (SE) 01:55:59 435.215
BEESAT 04 Aug 01:52:55 01:57:41 66° 69° (ENE) 02:02:28 436.000
KKS-1 04 Aug 01:55:51 01:58:59 20° 55° (NE) 02:02:12 437.445
YUBILEINY 04 Aug 02:01:07 02:09:50 71° 287° (WNW) 02:18:40 435.215
BEESAT 3 04 Aug 02:07:29 02:11:24 41° 331° (NNW) 02:15:20 437.485
TIGRISAT 04 Aug 02:07:37 02:11:06 21° 305° (NW) 02:14:31 435.000
ANTELSAT 04 Aug 02:10:53 02:14:15 19° 306° (NW) 02:17:32 437.575/2403.000
SWISSCUBE 04 Aug 02:13:57 02:18:46 82° 255° (WSW) 02:23:37 437.505
POLYITAN 1 04 Aug 02:20:36 02:24:09 26° 300° (WNW) 02:27:40 437.675
BUGSAT 1 04 Aug 02:23:26 02:27:04 32° 297° (WNW) 02:30:42 437.445
O/OREOS (USA 219) 04 Aug 02:27:58 02:32:25 67° 118° (ESE) 02:36:57 437.305
M-CUBED/EXP-1 PRIME 04 Aug 02:34:39 02:36:20 12° 325° (NW) 02:37:54 437.505
POPSAT HIP 1 04 Aug 02:36:37 02:39:48 20° 303° (WNW) 02:42:54 437.405
ITUPSAT 1 04 Aug 02:36:38 02:41:24 60° 258° (WSW) 02:46:12 437.325
QB50P2 04 Aug 02:45:21 02:48:14 18° 305° (NW) 02:51:01 145.880/145.840
STARS 04 Aug 02:56:15 03:00:14 36° 63° (ENE) 03:04:18 437.465
Gurwin Techsat 1B 04 Aug 02:56:52 03:00:53 22° 87° (E) 03:05:01 435.225
ITAMSAT 1 04 Aug 03:00:37 03:04:22 20° 87° (E) 03:08:12 435.822/435.867
Cosmos 2504 04 Aug 03:03:46 03:10:49 53° 90° (E) 03:18:29 435.465 / 435.565
DUCHIFAT 1 04 Aug 03:06:49 03:08:53 13° 309° (NW) 03:10:51 145.980
MOZHAYETS 4 04 Aug 03:09:42 03:12:34 17° 52° (NE) 03:15:34
BEESAT 2 04 Aug 03:10:53 03:14:30 28° 343° (NNW) 03:18:06 435.950
Oscar 19 04 Aug 03:11:07 03:16:18 66° 103° (ESE) 03:21:29 437.125/150
NANOSAT C BR1 04 Aug 03:12:47 03:14:29 12° 311° (NW) 03:16:03 145.865
QB50P1 04 Aug 03:12:55 03:14:36 12° 311° (NW) 03:16:08 145.935-145.965
AIST 2 04 Aug 03:26:28 03:30:32 40° 333° (NNW) 03:34:35 435.215
KKS-1 04 Aug 03:30:41 03:35:08 83° 253° (WSW) 03:39:37 437.445
BEESAT 04 Aug 03:32:07 03:35:59 23° 270° (W) 03:39:47 436.000
RS-15 04 Aug 03:38:58 03:50:11 58° 13° (NNE) 04:01:57 29.354- 29.394
BEESAT 3 04 Aug 03:46:52 03:50:13 23° 354° (N) 03:53:33 437.485
SWISSCUBE 04 Aug 03:54:34 03:57:27 15° 276° (W) 04:00:12 437.505
AO-7 04 Aug 03:54:42 03:59:55 18° 80° (E) 04:05:28 29.400- 29.500
JAS-2 04 Aug 03:56:32 04:03:39 37° 90° (E) 04:10:49 435.910
YUBILEINY 04 Aug 04:01:35 04:08:37 25° 315° (NW) 04:15:30 435.215
O/OREOS (USA 219) 04 Aug 04:08:19 04:12:15 28° 320° (NW) 04:16:13 437.305
ITUPSAT 1 04 Aug 04:18:59 04:20:25 11° 280° (W) 04:21:38 437.325
HORYU 2 04 Aug 04:22:02 04:24:48 16° 86° (E) 04:27:42 437.375
STARS 04 Aug 04:32:37 04:36:42 37° 263° (W) 04:40:48 437.465
Gurwin Techsat 1B 04 Aug 04:36:12 04:41:33 80° 289° (WNW) 04:46:53 435.225
ITAMSAT 1 04 Aug 04:39:22 04:44:35 84° 291° (WNW) 04:49:47 435.822/435.867
MOZHAYETS 4 04 Aug 04:44:29 04:49:08 76° 72° (ENE) 04:53:49
BEESAT 2 04 Aug 04:50:13 04:53:36 24° 7° (N) 04:56:59 435.950
GONETS M04 04 Aug 04:50:46 04:56:13 19° 71° (ENE) 05:02:00
Oscar 19 04 Aug 04:50:56 04:55:21 28° 303° (WNW) 04:59:42 437.125/150
Cosmos 2504 04 Aug 04:56:08 05:03:15 47° 296° (WNW) 05:10:56 435.465 / 435.565
AIST 2 04 Aug 05:06:29 05:10:01 24° 356° (N) 05:13:31 435.215
CUSAT 1 04 Aug 05:07:32 05:10:07 74° 103° (ESE) 05:12:50 437.405
KKS-1 04 Aug 05:10:09 05:12:33 14° 276° (W) 05:14:49 437.445
DANDE 04 Aug 05:11:08 05:13:46 44° 100° (E) 05:16:17 436.750
CUBESAT XI-V 04 Aug 05:11:56 05:15:30 22° 57° (ENE) 05:19:07 437.345
STRAND 1 04 Aug 05:23:56 05:26:54 16° 47° (NE) 05:30:00 437.568
BEESAT 3 04 Aug 05:25:36 05:29:11 28° 17° (NNE) 05:32:46 437.485
JAS-2 04 Aug 05:41:29 05:49:15 73° 292° (WNW) 05:57:02 435.910
AO-7 04 Aug 05:46:22 05:54:41 64° 105° (ESE) 06:02:57 29.400- 29.500
O/OREOS (USA 219) 04 Aug 05:51:17 05:53:14 12° 345° (NNW) 05:55:07 437.305
RS-15 04 Aug 05:52:11 06:03:49 89° 222° (SW) 06:15:59 29.354- 29.394
HORYU 2 04 Aug 05:57:34 06:02:07 88° 288° (WNW) 06:06:39 437.375
YUBILEINY 04 Aug 06:06:54 06:09:45 12° 347° (NNW) 06:12:28 435.215
Cosmos 2499 04 Aug 06:12:35 06:16:06 14° 66° (ENE) 06:20:07 435.465 / 435.565
Gurwin Techsat 1B 04 Aug 06:17:01 06:20:52 20° 310° (NW) 06:24:37 435.225
ITAMSAT 1 04 Aug 06:19:40 06:23:29 21° 309° (NW) 06:27:11 435.822/435.867
MOZHAYETS 4 04 Aug 06:23:32 06:26:57 19° 273° (W) 06:30:16
PRISM 04 Aug 06:27:33 06:31:03 27° 60° (ENE) 06:34:36 437.425
BEESAT 2 04 Aug 06:28:33 06:32:30 43° 30° (NNE) 06:36:26 435.950
CUTE-I 04 Aug 06:31:55 06:34:54 15° 83° (E) 06:38:04 437.470
GONETS M04 04 Aug 06:42:59 06:51:32 67° 95° (E) 07:00:09
AIST 2 04 Aug 06:45:50 06:49:38 30° 19° (NNE) 06:53:25 435.215
CUBESAT XI-V 04 Aug 06:47:51 06:52:32 74° 257° (WSW) 06:57:13 437.345
Cosmos 2504 04 Aug 06:53:21 06:58:04 16° 324° (NW) 07:02:46 435.465 / 435.565
DANDE 04 Aug 06:56:59 06:57:12 10° 303° (WNW) 06:57:20 436.750
STRAND 1 04 Aug 07:00:12 07:05:16 61° 68° (ENE) 07:10:21 437.568
BEESAT 3 04 Aug 07:03:34 07:07:40 77° 40° (NE) 07:11:43 437.485
M-CUBED/EXP-1 PRIME 04 Aug 07:13:09 07:14:19 11° 34° (NNE) 07:15:39 437.505
Cubesat XI-IV 04 Aug 07:16:01 07:20:44 31° 93° (E) 07:25:29 437.490
JAS-2 04 Aug 07:27:05 07:33:16 27° 314° (NW) 07:39:25 435.910
O/OREOS (USA 219) 04 Aug 07:33:16 07:34:43 11° 10° (N) 07:36:12 437.305
HORYU 2 04 Aug 07:35:05 07:38:13 18° 307° (NW) 07:41:14 437.375
AUBIESAT-1 04 Aug 07:37:53 07:40:05 14° 38° (NE) 07:42:25 437.475
AO-7 04 Aug 07:39:28 07:47:22 47° 308° (NW) 07:55:08 29.400- 29.500
Cosmos 2499 04 Aug 07:59:58 08:07:19 53° 90° (E) 08:15:20 435.465 / 435.565
PRISM 04 Aug 08:02:13 08:06:18 49° 260° (W) 08:10:23 437.425
RS-15 04 Aug 08:04:54 08:15:17 38° 249° (WSW) 08:25:48 29.354- 29.394
BEESAT 2 04 Aug 08:06:40 08:10:38 47° 231° (SW) 08:14:32 435.950
YUBILEINY 04 Aug 08:08:04 08:11:49 13° 21° (NNE) 08:15:47 435.215
CUTE-I 04 Aug 08:10:40 08:16:02 74° 105° (ESE) 08:21:21 437.470
PCSat 04 Aug 08:10:44 08:11:53 11° 103° (ESE) 08:13:18 145.827
AIST 2 04 Aug 08:24:26 08:28:42 86° 42° (NE) 08:32:53 435.215
CUBESAT XI-V 04 Aug 08:28:32 08:30:52 13° 278° (W) 08:33:01 437.345
GOMX 1 04 Aug 08:31:07 08:33:59 17° 87° (E) 08:37:05 467.674
BRITE-PL 04 Aug 08:37:19 08:41:00 26° 93° (E) 08:44:56 437.365/2234.400
STRAND 1 04 Aug 08:40:29 08:44:53 27° 269° (W) 08:49:13 437.568
GONETS M04 04 Aug 08:40:52 08:49:02 42° 300° (WNW) 08:57:10
BEESAT 3 04 Aug 08:42:02 08:45:13 22° 240° (WSW) 08:48:18 437.485
M-CUBED/EXP-1 PRIME 04 Aug 08:43:56 08:47:56 35° 54° (NE) 08:52:11 437.505
CUTE 1.7 + AOD 2 04 Aug 08:48:16 08:49:40 12° 82° (E) 08:51:15 437.475
Cubesat XI-IV 04 Aug 08:55:56 09:01:11 56° 294° (WNW) 09:06:23 437.490
CANX-2 04 Aug 08:56:25 08:58:51 15° 85° (E) 09:01:25 2200.000
AUBIESAT-1 04 Aug 09:09:36 09:13:48 48° 59° (ENE) 09:18:18 437.475
O/OREOS (USA 219) 04 Aug 09:12:13 09:15:51 23° 35° (NE) 09:19:32 437.305
JAS-2 04 Aug 09:13:11 09:15:56 12° 338° (NNW) 09:18:33 435.910
UNISAT 6 04 Aug 09:19:45 09:22:38 17° 53° (NE) 09:25:40 437.425
SO-50 04 Aug 09:20:04 09:23:55 25° 118° (ESE) 09:27:55 436.795
CINEMA 3 04 Aug 09:24:18 09:27:20 17° 86° (E) 09:30:35 145.822/145.860
HO-68 04 Aug 09:31:07 09:37:35 35° 93° (E) 09:44:07 435.675
AO-7 04 Aug 09:32:31 09:38:23 21° 333° (NNW) 09:44:06 29.400- 29.500
CUBEBUG 2 04 Aug 09:33:23 09:34:29 11° 80° (E) 09:35:49 437.445
DOVE 4 04 Aug 09:39:41 09:44:00 39° 97° (E) 09:48:34 437.250
PCSat 04 Aug 09:49:00 09:54:12 50° 123° (ESE) 09:59:28 145.827
CUTE-I 04 Aug 09:51:17 09:55:43 27° 305° (NW) 10:00:04 437.470
COMPASS 1 04 Aug 09:52:55 09:56:34 28° 93° (E) 10:00:15 437.405
Cosmos 2499 04 Aug 09:53:11 10:00:41 49° 296° (WNW) 10:08:46 435.465 / 435.565
TIGRISAT 04 Aug 10:00:15 10:04:09 31° 61° (ENE) 10:08:11 435.000
ANTELSAT 04 Aug 10:03:29 10:07:29 34° 62° (ENE) 10:11:37 437.575/2403.000
AIST 2 04 Aug 10:03:40 10:06:48 20° 242° (WSW) 10:09:49 435.215
YUBILEINY 04 Aug 10:04:55 10:12:30 31° 52° (NE) 10:20:14 435.215
GOMX 1 04 Aug 10:08:15 10:12:45 86° 284° (WNW) 10:17:32 467.674
POLYITAN 1 04 Aug 10:10:10 10:13:08 19° 56° (NE) 10:16:13 437.675
BUGSAT 1 04 Aug 10:12:07 10:14:04 14° 52° (NE) 10:16:09 437.445
SEEDS 04 Aug 10:13:33 10:17:45 50° 99° (E) 10:21:54 437.485
ZACube-1 04 Aug 10:13:44 10:16:24 16° 85° (E) 10:19:15 437.345
BRITE-PL 04 Aug 10:15:36 10:19:49 51° 291° (WNW) 10:24:17 437.365/2234.400
M-CUBED/EXP-1 PRIME 04 Aug 10:18:27 10:22:36 45° 256° (WSW) 10:27:04 437.505
CUTE 1.7 + AOD 2 04 Aug 10:22:08 10:26:28 71° 103° (ESE) 10:30:45 437.475
POPSAT HIP 1 04 Aug 10:25:15 10:28:38 24° 59° (ENE) 10:32:04 437.405
AAUSAT CUBESAT 2 04 Aug 10:30:59 10:35:08 52° 99° (E) 10:39:15 437.432
CANX-2 04 Aug 10:31:06 10:35:27 89° 297° (WNW) 10:39:46 2200.000
FUNcube-1 04 Aug 10:33:16 10:36:45 22° 89° (E) 10:40:21 145.935
HUMSAT D 04 Aug 10:33:17 10:33:33 10° 80° (E) 10:34:02 437.325/437.525
QB50P2 04 Aug 10:33:34 10:37:10 28° 61° (ENE) 10:40:51 145.880/145.840
Cubesat XI-IV 04 Aug 10:37:13 10:40:20 16° 315° (NW) 10:43:19 437.490
Oscar 11 04 Aug 10:39:44 10:43:42 33° 95° (E) 10:47:40 145.826/435.025
GONETS M04 04 Aug 10:43:56 10:49:02 16° 330° (NNW) 10:53:55
UWE-3 04 Aug 10:44:43 10:48:53 33° 94° (E) 10:53:08 435.000/436.395/437.385
AUBIESAT-1 04 Aug 10:44:47 10:48:41 31° 260° (W) 10:52:48 437.475
Cosmos 2504 04 Aug 10:48:11 10:51:44 13° 28° (NNE) 10:55:36 435.465 / 435.565
O/OREOS (USA 219) 04 Aug 10:51:20 10:55:57 86° 60° (ENE) 11:00:34 437.305
DUCHIFAT 1 04 Aug 10:53:39 10:57:30 38° 65° (ENE) 11:01:26 145.980
Cosmos 2491 04 Aug 10:54:06 10:59:12 18° 69° (ENE) 11:04:38 435.465 / 435.565
UNISAT 6 04 Aug 10:54:20 10:58:47 83° 73° (ENE) 11:03:23 437.425
SO-50 04 Aug 10:59:06 11:04:00 85° 319° (NW) 11:09:00 436.795
NANOSAT C BR1 04 Aug 10:59:20 11:03:18 43° 66° (ENE) 11:07:20 145.865
QB50P1 04 Aug 10:59:35 11:03:34 44° 66° (ENE) 11:07:37 145.935-145.965
CINEMA 3 04 Aug 11:00:29 11:05:11 88° 286° (WNW) 11:10:04 145.822/145.860
CUBEBUG 2 04 Aug 11:07:35 11:12:11 61° 101° (E) 11:16:53 437.445
DX 1 04 Aug 11:15:52 11:18:36 17° 87° (E) 11:21:27 434.975-435.025
DOVE 4 04 Aug 11:17:34 11:21:47 38° 295° (WNW) 11:26:12 437.250
HO-68 04 Aug 11:18:44 11:25:54 69° 296° (WNW) 11:33:02 435.675
Oscar 19 04 Aug 11:22:05 11:23:29 11° 40° (NE) 11:25:03 437.125/150
AO-7 04 Aug 11:23:49 11:28:14 16° 1° (N) 11:32:39 29.400- 29.500
DELFI C3 04 Aug 11:27:12 11:31:16 62° 102° (ESE) 11:35:16 145.870
COMPASS 1 04 Aug 11:28:21 11:32:25 45° 293° (WNW) 11:36:26 437.405
PCSat 04 Aug 11:32:26 11:37:43 50° 325° (NW) 11:43:02 145.827
TIGRISAT 04 Aug 11:36:30 11:40:47 46° 262° (W) 11:45:10 435.000
ANTELSAT 04 Aug 11:39:58 11:44:11 42° 263° (W) 11:48:33 437.575/2403.000
VELOX 1 04 Aug 11:43:31 11:46:40 19° 88° (E) 11:49:54 145.980
POLYITAN 1 04 Aug 11:44:23 11:48:36 77° 256° (WSW) 11:52:52 437.675
BUGSAT 1 04 Aug 11:44:53 11:48:54 73° 72° (ENE) 11:52:57 437.445
GOMX 1 04 Aug 11:47:24 11:50:25 18° 305° (NW) 11:53:26 467.674
ZACube-1 04 Aug 11:48:54 11:53:28 88° 105° (ESE) 11:58:05 437.345
SEEDS 04 Aug 11:49:41 11:53:20 27° 299° (WNW) 11:56:54 437.485
AIST 1 04 Aug 11:50:08 11:53:35 24° 88° (E) 11:57:05
Cosmos 2499 04 Aug 11:51:11 11:56:29 18° 324° (NW) 12:01:47 435.465 / 435.565
BRITE-PL 04 Aug 11:56:22 11:57:34 11° 311° (NW) 11:58:38 437.365/2234.400
CUTE 1.7 + AOD 2 04 Aug 11:58:42 12:01:58 21° 303° (WNW) 12:05:09 437.475
POPSAT HIP 1 04 Aug 12:00:05 12:04:14 57° 259° (W) 12:08:25 437.405
YUBILEINY 04 Aug 12:01:48 12:10:42 89° 88° (E) 12:19:35 435.215
HUMSAT D 04 Aug 12:05:57 12:10:16 62° 101° (ESE) 12:14:34 437.325/437.525
AAUSAT CUBESAT 2 04 Aug 12:06:58 12:10:30 26° 300° (WNW) 12:13:59 437.432
CANX-2 04 Aug 12:07:58 12:10:50 17° 305° (NW) 12:13:35 2200.000
QB50P2 04 Aug 12:08:50 12:12:55 46° 261° (W) 12:17:02 145.880/145.840
FUNcube-1 04 Aug 12:09:00 12:13:31 66° 289° (WNW) 12:18:04 145.935
ESTCUBE 1 04 Aug 12:09:16 12:12:57 24° 91° (E) 12:16:39 437.505/2401.250
Oscar 11 04 Aug 12:15:51 12:19:58 40° 295° (WNW) 12:24:02 145.826/435.025
UKube-1 04 Aug 12:17:17 12:21:30 48° 100° (E) 12:25:43 .
UWE-3 04 Aug 12:21:09 12:25:31 44° 294° (WNW) 12:29:56 435.000/436.395/437.385
DUCHIFAT 1 04 Aug 12:29:35 12:33:23 33° 265° (W) 12:37:12 145.980
50 SAT 04 Aug 12:31:32 12:35:29 55° 101° (ESE) 12:39:23 437.505
O/OREOS (USA 219) 04 Aug 12:31:43 12:34:50 18° 258° (WSW) 12:37:50 437.305
UNISAT 6 04 Aug 12:33:17 12:36:15 17° 275° (W) 12:39:09 437.425
NANOSAT C BR1 04 Aug 12:35:36 12:39:18 29° 267° (W) 12:42:58 145.865
QB50P1 04 Aug 12:35:55 12:39:36 28° 267° (W) 12:43:17 145.935-145.965
JAS-2 04 Aug 12:36:04 12:39:42 15° 30° (NNE) 12:43:39 435.910
CINEMA 3 04 Aug 12:38:34 12:41:52 19° 305° (NW) 12:45:09 145.822/145.860
Cosmos 2504 04 Aug 12:39:46 12:47:09 34° 57° (ENE) 12:54:52 435.465 / 435.565
SO-50 04 Aug 12:40:33 12:45:07 36° 342° (NNW) 12:49:44 436.795
AISAT 04 Aug 12:41:23 12:45:46 58° 102° (ESE) 12:50:08 437.250
CUBEBUG 1 04 Aug 12:44:09 12:48:14 39° 97° (E) 12:52:20 437.445
CUBEBUG 2 04 Aug 12:44:44 12:48:36 26° 300° (WNW) 12:52:28 437.445
Cosmos 2491 04 Aug 12:45:51 12:54:24 62° 93° (E) 13:02:58 435.465 / 435.565
Gurwin Techsat 1B 04 Aug 12:47:56 12:51:16 18° 48° (NE) 12:54:44 435.225
ITAMSAT 1 04 Aug 12:49:03 12:52:08 16° 47° (NE) 12:55:20 435.822/435.867
GONETS M04 04 Aug 12:49:30 12:50:55 10° 4° (N) 12:52:22
DX 1 04 Aug 12:51:05 12:55:27 81° 290° (WNW) 12:59:49 434.975-435.025
Oscar 19 04 Aug 12:56:53 13:01:38 40° 62° (ENE) 13:06:26 437.125/150
DELFI C3 04 Aug 13:02:51 13:06:00 22° 301° (WNW) 13:09:05 145.870
TISAT 1 04 Aug 13:03:57 13:06:29 16° 87° (E) 13:09:09 437.305
SPROUT 04 Aug 13:06:08 13:09:40 25° 92° (E) 13:13:15 437.525
HO-68 04 Aug 13:07:05 13:12:38 24° 318° (NW) 13:18:03 435.675
AO-7 04 Aug 13:12:11 13:18:09 23° 29° (NNE) 13:24:14 29.400- 29.500
PCSat 04 Aug 13:17:43 13:22:18 27° 349° (N) 13:26:52 145.827
VELOX 1 04 Aug 13:19:20 13:23:45 71° 289° (WNW) 13:28:08 145.980
BUGSAT 1 04 Aug 13:22:16 13:24:54 16° 272° (W) 13:27:27 437.445
POLYITAN 1 04 Aug 13:23:33 13:25:20 12° 277° (W) 13:26:57 437.675
ZACube-1 04 Aug 13:26:04 13:29:18 19° 305° (NW) 13:32:29 437.345
AIST 1 04 Aug 13:26:46 13:31:00 51° 288° (WNW) 13:35:13
HUMSAT D 04 Aug 13:42:12 13:45:41 24° 301° (WNW) 13:49:06 437.325/437.525
ESTCUBE 1 04 Aug 13:45:43 13:50:09 57° 292° (WNW) 13:54:33 437.505/2401.250
FUNcube-1 04 Aug 13:46:35 13:49:06 15° 309° (NW) 13:51:32 145.935
CUSAT 1 04 Aug 13:50:55 13:53:43 18° 62° (ENE) 13:57:09 437.405
UKube-1 04 Aug 13:53:43 13:57:28 28° 300° (WNW) 14:01:10 .
DANDE 04 Aug 13:58:17 13:59:54 13° 59° (ENE) 14:01:47 436.750
YUBILEINY 04 Aug 13:59:23 14:06:36 29° 282° (WNW) 14:13:37 435.215
UWE-3 04 Aug 14:00:02 14:01:04 11° 314° (NW) 14:01:57 435.000/436.395/437.385
50 SAT 04 Aug 14:06:35 14:09:46 23° 300° (WNW) 14:12:53 437.505
SWISSCUBE 04 Aug 14:07:42 14:10:33 16° 85° (E) 14:13:31 437.505
JAS-2 04 Aug 14:16:46 14:22:48 37° 54° (NE) 14:29:31 435.910
AISAT 04 Aug 14:18:25 14:22:04 25° 302° (WNW) 14:25:41 437.250
CUBEBUG 1 04 Aug 14:20:38 14:24:34 34° 297° (WNW) 14:28:27 437.445
SO-50 04 Aug 14:22:22 14:26:46 30° 6° (N) 14:31:12 436.795
Gurwin Techsat 1B 04 Aug 14:25:10 14:30:26 66° 69° (ENE) 14:35:45 435.225
ITAMSAT 1 04 Aug 14:25:39 14:30:48 62° 67° (ENE) 14:35:58 435.822/435.867
DX 1 04 Aug 14:28:22 14:31:07 16° 308° (NW) 14:33:47 434.975-435.025
ITUPSAT 1 04 Aug 14:30:03 14:33:41 22° 89° (E) 14:37:25 437.325
Cosmos 2504 04 Aug 14:31:58 14:40:21 83° 261° (W) 14:49:00 435.465 / 435.565
Oscar 19 04 Aug 14:36:06 14:41:00 43° 262° (W) 14:45:56 437.125/150
TISAT 1 04 Aug 14:38:37 14:42:52 82° 287° (WNW) 14:47:05 437.305
SPROUT 04 Aug 14:41:49 14:46:02 53° 292° (WNW) 14:50:14 437.525
Cosmos 2491 04 Aug 14:43:25 14:51:45 45° 298° (WNW) 15:00:02 435.465 / 435.565
GONETS M04 04 Aug 14:46:47 14:52:33 19° 37° (NE) 14:58:32
HO-68 04 Aug 14:55:40 14:58:00 12° 344° (NNW) 15:00:12 435.675
VELOX 1 04 Aug 14:57:03 14:59:37 15° 309° (NW) 15:02:04 145.980
AO-7 04 Aug 15:01:21 15:09:19 52° 54° (NE) 15:17:21 29.400- 29.500
PCSat 04 Aug 15:02:34 15:07:15 28° 15° (NNE) 15:11:56 145.827
AIST 1 04 Aug 15:09:30 15:09:49 10° 311° (NW) 15:09:57
KKS-1 04 Aug 15:15:55 15:17:37 12° 83° (E) 15:19:31 437.445
BEESAT 04 Aug 15:23:13 15:27:57 55° 101° (ESE) 15:32:39 436.000
ESTCUBE 1 04 Aug 15:24:08 15:26:11 13° 312° (NW) 15:28:07 437.505/2401.250
HORYU 2 04 Aug 15:26:56 15:31:02 37° 63° (ENE) 15:35:11 437.375
CUSAT 1 04 Aug 15:32:32 15:36:30 74° 257° (WSW) 15:41:50 437.405
DANDE 04 Aug 15:39:45 15:43:19 88° 75° (ENE) 15:48:06 436.750
SWISSCUBE 04 Aug 15:44:23 15:49:13 85° 107° (ESE) 15:53:59 437.505
Cosmos 2499 04 Aug 15:47:48 15:52:12 15° 29° (NNE) 15:56:56 435.465 / 435.565
JAS-2 04 Aug 16:00:53 16:07:26 70° 258° (WSW) 16:14:52 435.910
SO-50 04 Aug 16:03:21 16:08:14 52° 30° (NNE) 16:13:05 436.795
ITAMSAT 1 04 Aug 16:06:14 16:10:43 28° 268° (W) 16:15:08 435.822/435.867
Gurwin Techsat 1B 04 Aug 16:06:25 16:10:55 27° 270° (W) 16:15:22 435.225
ITUPSAT 1 04 Aug 16:07:19 16:12:07 71° 291° (WNW) 16:16:53 437.325
STARS 04 Aug 16:14:34 16:18:12 25° 92° (E) 16:21:52 437.465
TISAT 1 04 Aug 16:15:27 16:18:02 16° 307° (NW) 16:20:32 437.305
SPROUT 04 Aug 16:19:47 16:21:16 11° 312° (NW) 16:22:37 437.525
CUTE-I 04 Aug 16:24:03 16:26:41 14° 43° (NE) 16:29:27 437.470
Cosmos 2504 04 Aug 16:25:01 16:31:35 26° 283° (WNW) 16:38:04 435.465 / 435.565
MOZHAYETS 4 04 Aug 16:34:03 16:35:31 11° 80° (E) 16:37:11
HO-68 04 Aug 16:41:03 16:42:39 11° 12° (NNE) 16:44:20 435.675
GONETS M04 04 Aug 16:43:33 16:52:01 52° 66° (ENE) 17:00:33
Cosmos 2491 04 Aug 16:46:11 16:51:37 17° 328° (NNW) 16:56:49 435.465 / 435.565
PCSat 04 Aug 16:46:17 16:51:41 59° 39° (NE) 16:57:04 145.827
KKS-1 04 Aug 16:50:40 16:55:09 72° 104° (ESE) 16:59:38 437.445
AO-7 04 Aug 16:53:55 17:02:10 58° 257° (WSW) 17:10:25 29.400- 29.500
BEESAT 04 Aug 17:01:25 17:05:35 30° 301° (WNW) 17:09:40 436.000
HORYU 2 04 Aug 17:03:28 17:07:40 38° 263° (W) 17:11:54 437.375
Cubesat XI-IV 04 Aug 17:07:09 17:11:21 24° 53° (NE) 17:15:37 437.490
CUSAT 1 04 Aug 17:17:01 17:18:47 12° 271° (W) 17:20:29 437.405
SWISSCUBE 04 Aug 17:22:58 17:26:33 21° 306° (NW) 17:30:02 437.505
DANDE 04 Aug 17:24:29 17:26:15 12° 269° (W) 17:28:01 436.750
Cosmos 2499 04 Aug 17:40:43 17:48:35 37° 57° (ENE) 17:56:44 435.465 / 435.565
SO-50 04 Aug 17:44:03 17:48:52 50° 232° (SW) 17:53:36 436.795
ITUPSAT 1 04 Aug 17:46:16 17:49:17 17° 310° (NW) 17:52:12 437.325
JAS-2 04 Aug 17:49:31 17:54:09 19° 283° (WNW) 17:58:51 435.910
STARS 04 Aug 17:50:36 17:54:57 56° 292° (WNW) 17:59:18 437.465
CUTE-I 04 Aug 18:00:34 18:05:43 50° 64° (ENE) 18:10:54 437.470
MOZHAYETS 4 04 Aug 18:09:08 18:13:46 66° 102° (ESE) 18:18:22
BRITE-PL 04 Aug 18:20:34 18:22:14 12° 51° (NE) 18:24:02 437.365/2234.400
HO-68 04 Aug 18:22:52 18:27:49 21° 38° (NE) 18:32:55 435.675
KKS-1 04 Aug 18:27:56 18:31:24 22° 304° (WNW) 18:34:48 437.445
PCSat 04 Aug 18:29:57 18:35:00 40° 241° (WSW) 18:40:00 145.827
CUBESAT XI-V 04 Aug 18:37:44 18:40:46 17° 86° (E) 18:43:54 437.345
GONETS M04 04 Aug 18:40:40 18:49:02 53° 270° (W) 18:57:22
Cubesat XI-IV 04 Aug 18:45:34 18:50:58 84° 253° (WSW) 18:56:23 437.490
Cosmos 2491 04 Aug 18:52:05 18:53:27 10° 1° (N) 18:54:51 435.465 / 435.565
AO-7 04 Aug 18:52:11 18:57:09 16° 282° (WNW) 19:01:42 29.400- 29.500
STRAND 1 04 Aug 19:05:04 19:06:43 12° 80° (E) 19:08:38 437.568
DOVE 4 04 Aug 19:17:32 19:20:03 16° 53° (NE) 19:22:42 437.250
COMPASS 1 04 Aug 19:19:22 19:20:15 11° 48° (NE) 19:21:18 437.405
SO-50 04 Aug 19:26:59 19:28:25 11° 251° (WSW) 19:29:38 436.795
STARS 04 Aug 19:28:39 19:30:34 13° 312° (NW) 19:32:22 437.465
Cosmos 2499 04 Aug 19:33:57 19:42:40 78° 262° (W) 19:51:33 435.465 / 435.565
PRISM 04 Aug 19:37:57 19:40:10 14° 86° (E) 19:42:29 437.425
SEEDS 04 Aug 19:38:49 19:41:34 17° 55° (NE) 19:44:26 437.485
CUTE-I 04 Aug 19:41:04 19:46:00 36° 265° (W) 19:50:55 437.470
GOMX 1 04 Aug 19:46:49 19:50:35 36° 65° (ENE) 19:54:28 467.674
MOZHAYETS 4 04 Aug 19:46:52 19:50:39 25° 302° (WNW) 19:54:21
CUTE 1.7 + AOD 2 04 Aug 19:47:27 19:50:47 23° 59° (ENE) 19:54:13 437.475
AAUSAT CUBESAT 2 04 Aug 19:55:06 19:57:49 17° 55° (NE) 20:00:37 437.432
BRITE-PL 04 Aug 19:55:55 20:00:05 65° 71° (ENE) 20:04:13 437.365/2234.400
CANX-2 04 Aug 19:56:04 19:59:44 28° 61° (ENE) 20:03:27 2200.000
HO-68 04 Aug 20:07:22 20:14:18 57° 61° (ENE) 20:21:19 435.675
Oscar 11 04 Aug 20:08:15 20:10:21 14° 51° (NE) 20:12:35 145.826/435.025
CUBESAT XI-V 04 Aug 20:14:13 20:18:52 83° 287° (WNW) 20:23:28 437.345
UWE-3 04 Aug 20:15:33 20:17:35 13° 50° (NE) 20:19:45 435.000/436.395/437.385
Cubesat XI-IV 04 Aug 20:28:18 20:31:58 18° 275° (W) 20:35:28 437.490
RS-15 04 Aug 20:28:42 20:36:14 23° 100° (E) 20:44:24 29.354- 29.394
CINEMA 3 04 Aug 20:33:23 20:37:09 32° 62° (ENE) 20:41:05 145.822/145.860
CUBEBUG 2 04 Aug 20:38:01 20:41:17 22° 57° (ENE) 20:44:41 437.445
GONETS M04 04 Aug 20:39:32 20:43:55 15° 294° (WNW) 20:47:54
STRAND 1 04 Aug 20:42:03 20:47:08 60° 102° (ESE) 20:52:12 437.568
DELFI C3 04 Aug 20:47:58 20:50:42 18° 56° (ENE) 20:53:32 145.870
Cosmos 2491 04 Aug 20:49:41 20:55:11 18° 35° (NE) 21:00:55 435.465 / 435.565
COMPASS 1 04 Aug 20:50:56 20:55:02 49° 68° (ENE) 20:59:11 437.405
DOVE 4 04 Aug 20:53:05 20:57:15 87° 75° (ENE) 21:01:32 437.250
PRISM 04 Aug 21:12:06 21:16:16 87° 287° (WNW) 21:20:22 437.425
SEEDS 04 Aug 21:12:32 21:16:49 90° 237° (WSW) 21:21:09 437.485
ZACube-1 04 Aug 21:16:40 21:20:21 29° 61° (ENE) 21:24:10 437.345
CUTE 1.7 + AOD 2 04 Aug 21:22:05 21:26:22 64° 258° (WSW) 21:30:40 437.475
GOMX 1 04 Aug 21:25:02 21:28:49 33° 265° (W) 21:32:38 467.674
Cosmos 2499 04 Aug 21:28:01 21:34:43 25° 284° (WNW) 21:41:14 435.465 / 435.565
AAUSAT CUBESAT 2 04 Aug 21:28:39 21:32:52 89° 254° (WSW) 21:37:08 437.432
HUMSAT D 04 Aug 21:30:37 21:33:40 20° 57° (ENE) 21:36:50 437.325/437.525
CANX-2 04 Aug 21:31:17 21:35:28 49° 261° (W) 21:39:42 2200.000
FUNcube-1 04 Aug 21:36:05 21:40:04 39° 65° (ENE) 21:44:12 145.935
BRITE-PL 04 Aug 21:36:08 21:39:09 18° 272° (W) 21:42:03 437.365/2234.400
Oscar 11 04 Aug 21:41:28 21:45:47 64° 70° (ENE) 21:50:08 145.826/435.025
ISS 04 Aug 21:42:20 21:44:46 20° 154° (SSE) 21:47:14 145.825
ESTCUBE 1 04 Aug 21:42:24 21:44:13 12° 48° (NE) 21:46:11 437.505/2401.250
UKube-1 04 Aug 21:44:41 21:47:49 20° 55° (NE) 21:51:01 .
